Tracking 19908 objects as of 18-Oct-2019
HD Live streaming from Space Station
objects crossing your sky now

ARIANE 5 DEB (SYLDA)

Track ARIANE 5 DEB (SYLDA) now!
10-day predictions


NORAD ID: 40877
Int'l Code: 2015-039D
Perigee: 279.5 km
Apogee: 27,018.1 km
Inclination: 5.0 °
Period: 469.8 minutes
Semi major axis: 20019 km
RCS: Unknown
Launch date: August 20, 2015
Source: France (FR)
Launch site: FRENCH GUIANA (FRGUI)

Note: This is SATELLITE DEBRIS
aabbcc
Your satellite tracking list
Your tracking list is empty




NASA's NSSDC Master Catalog

Two Line Element Set (TLE):
1 40877U 15039D   19289.43450590 +.00005748 +00000-0 +15389-2 0  9995
2 40877 005.0179 039.3203 6678018 302.1913 010.0656 03.06487988041562
Source of the keplerian elements: AFSPC